AirNav   Everest Fuels
 
 360 users online  

1IL0 Barnstorm Field Airport
El Paso, Illinois, USA

GOING TO EL PASO?


FAA INFORMATION EFFECTIVE 21 MAY 2020

Location

FAA Identifier: 1IL0
Lat/Long: 40-46-30.0000N 089-00-04.0000W
40-46.500000N 089-00.066667W
40.7750000,-89.0011111
(estimated)
Elevation: 731 ft. / 223 m (estimated)
Variation: 01W (1995)
From city: 3 miles N of EL PASO, IL
Time zone: UTC -5 (UTC -6 during Standard Time)
Zip code: 61738

Airport Operations

Airport use: Private use. Permission required prior to landing
Activation date: 03/1999
Control tower: no
ARTCC: CHICAGO CENTER
FSS: KANKAKEE FLIGHT SERVICE STATION
Attendance: IREG
Wind indicator: yes
Segmented circle: no

Airport Communications

WX AWOS-3PT at BMI (18 nm S): 135.35 (309-661-9478)
WX AWOS-3 at PNT (19 nm NE): 119.675 (815-844-0923)

Nearby radio navigation aids

VOR radial/distance  VOR name  Freq  Var
PNTr254/12.5PONTIAC VOR/DME109.6003E
BMIr347/17.9BLOOMINGTON VOR/DME108.2003E
BDFr131/35.2BRADFORD VORTAC114.7000E
PIAr077/36.4PEORIA VORTAC115.2004E
RBSr285/39.8ROBERTS VOR/DME116.8002E

 
NDB name  Hdg/Dist  Freq  Var  ID
EGROW339/14.133403WLH .-.. ....
ABRAHAM023/40.032900EAAA .- .- .-

Airport Services

Runway Information

Runway 9/27

Dimensions: 2650 x 70 ft. / 808 x 21 m
Surface: turf
Runway edge markings: RY 09 DSPLCD THLD MKD WITH WHITE TIRES.
RUNWAY 9  RUNWAY 27
Traffic pattern: leftleft
Displaced threshold: 450 ft.no
Obstructions: 30 ft. plinenone

Airport Ownership and Management from official FAA records

Ownership: Privately-owned
Owner: DAVID BURROUGHS
1262 COUNTY RD 2800 E
EL PASO, IL 61738
Phone (309) 261-0992
Manager: DAVID BURROUGHS
1262 COUNTY RD 2800 E
EL PASO, IL 61738
Phone (309) 261-0992

Airport Operational Statistics

Aircraft based on the field: 2
Single engine airplanes: 2
    

Additional Remarks

OWNER DESIRES ARPT NOT BE CHARTED.
FOR CD CTC CHICAGO ARTCC AT 630-906-8921.

Instrument Procedures

There are no published instrument procedures at 1IL0.

Some nearby airports with instrument procedures:

KBMI - Central Illinois Regional Airport at Bloomington-Normal (18 nm S)
KPNT - Pontiac Municipal Airport (19 nm NE)
C75 - Marshall County Airport (23 nm NW)
3MY - Mount Hawley Auxiliary Airport (28 nm W)
KPIA - General Downing - Peoria International Airport (32 nm W)
 
Loc | Ops | Rwys | IFR | FBO | Links
Com | Nav | Svcs | Stats | Notes
Area around 1IL0 (Barnstorm Field Airport)
 
Road maps at: MapQuest Bing Google
 
Aerial photo
No photo
 
Sectional chart

 
Airport distance calculator
Flying to Barnstorm Field Airport? Find the distance to fly.

From to 1IL0

Sunrise and sunset
Times for 31-May-2020
 Local
(UTC-5)
 Zulu
(UTC)
Morning civil twilight04:5509:55
Sunrise05:2810:28
Sunset20:2001:20
Evening civil twilight20:5301:53

Current date and time
Zulu (UTC)  31-May-2020 10:08:45
Local (UTC-5)  31-May-2020 05:08:45
 
METAR
KPNT 
19nm NE 
310955Z AUTO 04008KT 10SM CLR 11/09 A3030 RMK AO2 T01110085
KBMI 
19nm S 
310956Z AUTO 07006KT 10SM CLR 10/08 A3029 RMK AO2 SLP254 T01000083
KC75 
23nm NW 
310955Z AUTO 00000KT 10SM CLR 10/08 A3028 RMK AO2 T00970081
KPIA 
32nm W 
310954Z 06007KT 10SM CLR 11/08 A3027 RMK AO2 SLP250 T01110078
KVYS 
35nm N 
310955Z AUTO 06007KT 10SM CLR 11/08 RMK AO2 T01100078
TAF
KBMI 
19nm S 
310520Z 3106/0106 VRB04KT P6SM SKC FM311200 08005KT P6SM SKC FM311900 VRB04KT P6SM SCT060
NOTAMs
Click for the latest NOTAMs
NOTAMs are issued by the DoD/FAA and will open in a separate window not controlled by AirNav.

 

 
 

Would you like to see your business listed on this page?

 If your business provides an interesting product or service to pilots, flight crews, aircraft, or users of the Barnstorm Field Airport, you should consider listing it here.  To start the listing process, click on the button below
 
Add a business
 

Other Pages about Barnstorm Field Airport

Update a link
 
Copyright © AirNav, LLC. All rights reserved. Privacy Policy  Contact